Location: Honolulu
(21.3069°N, 157.8583°W)
Time: 04:35:00
(UTC-10:00)

SR - Visible Passes

Search period start: 09 June 2026 00:00
Search period end: 19 June 2026 00:00
Orbit: 567 x 853 km, 66.7° (Epoch: 9 June)

Date Brightness Start Highest point End Pass type
(mag) Time Alt. Az. Time Alt. Az. Time Alt. Az.
14 Jun ? 23:47:08 10° N 23:47:08 10° N 23:47:10 10° N visible
16 Jun ? 23:37:18 12° NNW 23:37:18 12° NNW 23:37:52 10° N visible
17 Jun ? 22:42:43 15° NNE 22:42:43 15° NNE 22:43:38 10° NNE visible
18 Jun ? 21:47:57 12° NE 21:47:57 12° NE 21:48:21 10° NE visible
18 Jun ? 23:26:54 12° NW 23:26:54 12° NW 23:27:57 10° NNW visible
